Tracking 35237 objects as of 6-Sep-2026
HD Live streaming from Space Station
objects crossing your sky now

COSMOS 299


COSMOS 299 is no longer on orbit


NORAD ID: 4097
Int'l Code: 1969-078A
Launch date: September 18, 1969
Source: Commonwealth of Independent States (former USSR) (CIS)
Launch site: TYURATAM MISSILE AND SPACE COMPLEX (TTMTR)
Decay date: 1969-09-22
Your satellite tracking list
Your tracking list is empty




NASA's NSSDC Master Catalog

Two Line Element Set (TLE):
1 04097U 69078  A 69262.41127108  .00172785 +00000-0 +00000-0 0  9999
2 04097 064.9788 159.2603 0058080 062.4069 298.2874 16.10848952000170
Source of the keplerian elements: AFSPC